Location: Eppenbrunn
(49.1158°N, 7.5601°E)
Time: 23:16:54
(UTC+00:00)

ARGOS - Pass Details

Date: 09 April 2020
Orbit: 820 x 834 km, 98.5° (Epoch: 29 May)

Event Time Altitude Azimuth Distance (km) Brightness Sun altitude
Rises 19:22:56 0° 175° (S) 3,357 6.0 -11.5°
Reaches altitude 10° 19:25:19 10° 179° (S) 2,426 5.3 -11.8°
Maximum altitude 19:30:37 60° 259° (W) 948 3.7 -12.6°
Drops below altitude 10° 19:35:57 10° 339° (NNW) 2,435 6.4 -13.3°
Sets 19:38:21 0° 343° (NNW) 3,371 7.1 -13.7°
